Simultaneous Nadir Overpasses (SNOs) Predictions

Prediction of SNOs between GOES-15 and TERRA Satellite Orbit:

Table of predicted SNOs for the next 14.0 days since TLE Epoch: 3/22/2014
Index Date Time (GOES-15) GOES-15 Lat,Lon TERRA Lat,Lon Distance(km) Time Diff (sec)
1 03/22/2014 07:15:57 -0.05,-134.93 0.59,-131.91 342.91 80
2 03/22/2014 19:37:13 0.05,-134.96 0.52,-137.07 240.77 80
3 03/24/2014 19:27:45 0.04,-135.02 -0.14,-134.13 100.97 80
4 03/25/2014 07:49:10 -0.04,-135.03 -0.95,-139.33 488.93 80
5 03/26/2014 19:15:36 0.04,-135.08 -0.76,-131.18 442.42 80
6 03/27/2014 07:37:01 -0.04,-135.08 -0.33,-136.38 147.61 80
7 03/29/2014 07:22:12 -0.04,-135.14 0.31,-133.43 193.64 80
8 03/29/2014 19:43:28 0.03,-135.16 0.79,-138.59 390.71 80
9 03/31/2014 19:31:19
